Location: Plymouth Village
(34.0436°N, 117.1717°W)
Time: 03:30:41
(UTC+00:00)

SME Rocket - Pass Details

Date: 10 September 2024
Orbit: 550 x 2642 km, 99.9° (Epoch: 06 October)

Event Time Altitude Azimuth Distance (km) Brightness Sun altitude
Rises 12:53:51 0° 4° (N) 2,769 6.6 -8.0°
Reaches altitude 10° 12:56:03 10° 355° (N) 1,832 5.6 -7.6°
Maximum altitude 12:59:28 35° 288° (WNW) 923 3.5 -6.9°
Drops below altitude 10° 13:03:11 10° 222° (SW) 2,002 5.2 -6.1°
Sets 13:05:42 0° 213° (SSW) 3,073 6.2 -5.6°
